Volver al catálogo

JILIN-01-10

ActivoCienciaSSO
NORAD 43946·PAYLOAD·🇨🇳 China

Lanzado Jan 21, 2019 desde Jiuquan Satellite Launch Center

Loading…

Próximos Pases (próximas 24 horas)

TLE

ActualizadoSource: Space-Track

Época: Sep 14, 2026, 13:24 UTC

1 43946U 19005E   26257.55857044  .00004766  00000-0  18498-3 0  9997
2 43946  97.4802 356.4243 0007095 334.0395  26.0486 15.26568938422943

Sigue JILIN-01-10 en tiempo real con AllMySat

Download on the App Store